This demonstration page uses our WeatherBlox Daily Observations layout. Learn more.

Left ArrowRight Arrow

Hourly Observations for November 26, 2015

Temp ( °F °C ) Dew Point ( °F °C ) Humidity (%) Winds ( mph kmh ) Pressure ( in mb ) Visibility ( mi km ) Precip ( " mm )
12:53 am 00:53 Cloudy with Mist and Fog 35 1.7 32 0 89 89 NNE 16 26 30.11 1020 5 8 0.00 0.00
1:15 am 01:15 Cloudy with Mist and Fog 34 1 32 0 93 93 NNE 18 30 30.15 1021 3 4 0.00 0.00
1:41 am 01:41 Cloudy with Light Snow 34 1.1 32 0 92 92 NNE 18 30 30.18 1022 2 2 0.00 0.03
1:53 am 01:53 Windy with Snow Likely 34 1.1 32 0 92 92 NNE 20 31 30.11 1020 2 2 0.00 0.03
2:16 am 02:16 Windy with Snow Likely 34 1.1 31 -0.6 89 89 NNE 20 31 30.18 1022 2 3 0.00 0.03
2:42 am 02:42 Cloudy with Light Rain 34 1 30 -1 87 87 NNE 17 28 30.18 1022 3 5 0.00 0.00
2:53 am 02:53 Cloudy with Light Rain 33 0.6 31 -0.6 92 92 NNE 23 37 30.11 1020 3 5 0.00 0.03
3:53 am 03:53 Cloudy with Light Rain 32 0 30 -1.1 92 92 N 17 28 30.15 1021 3 5 0.00 0.03
4:16 am 04:16 Cloudy with Light Freezing Rain 32 0 30 -1.1 92 92 N 18 30 30.18 1022 3 4 0.00 0.03
4:24 am 04:24 Cloudy with Light Snow 32 0 30 -1.1 92 92 N 17 28 30.18 1022 2 3 0.00 0.03
4:53 am 04:53 Windy with Snow Likely 31 -0.6 29 -1.7 92 92 N 20 31 30.19 1022 3 4 0.00 0.03
5:11 am 05:11 Cloudy with Light Wintry Mix 31 -0.6 29 -1.7 92 92 N 23 37 30.24 1024 3 5 0.00 0.03
5:30 am 05:30 Cloudy with Light Freezing Rain 30 -1 28 -2 93 93 N 21 33 30.24 1024 3 5 0.00 0.00
5:53 am 05:53 Cloudy with Light Freezing Rain 31 -0.6 28 -2.2 89 89 N 24 39 30.17 1022 4 6 0.00 0.03
6:37 am 06:37 Cloudy with Light Freezing Rain 30 -1.1 27 -2.8 88 88 N 20 31 30.30 1026 10 16 0.00 0.03
6:53 am 06:53 Cloudy 30 -1.1 27 -2.8 88 88 N 21 33 30.24 1024 10 16 0.00 0.03
7:26 am 07:26 Cloudy 30 -1 27 -3 86 86 N 17 28 30.27 1025 10 16 0.00 0.00
7:53 am 07:53 Cloudy with Light Freezing Rain 30 -1.1 26 -3.3 85 85 N 22 35 30.26 1025 9 14 0.00 0.03
7:58 am 07:58 Cloudy with Freezing Rain 30 -1 27 -3 86 86 N 18 30 30.30 1026 7 11 0.00 0.00
8:05 am 08:05 Cloudy with Light Freezing Rain 30 -1.1 27 -2.8 88 88 N 17 28 30.30 1026 7 11 0.01 0.25
8:42 am 08:42 Windy with Snow Likely 28 -2 27 -3 93 93 N 20 31 30.33 1027 7 11 0.00 0.00
8:53 am 08:53 Cloudy with Light Wintry Mix 29 -1.7 26 -3.3 89 89 N 18 30 30.30 1026 3 5 0.03 0.76
8:59 am 08:59 Windy with Snow Likely 29 -1.7 25 -3.9 85 85 N 24 39 30.33 1027 2 3 0.01 0.25
9:05 am 09:05 Windy with Snow Likely 28 -2.2 25 -3.9 88 88 N 22 35 30.33 1027 3 5 0.01 0.25
9:21 am 09:21 Windy with Snow Likely 28 -2 25 -4 86 86 N 22 35 30.36 1028 2 3 0.00 0.00
9:28 am 09:28 Windy with Snow Likely 28 -2 25 -4 86 86 N 22 35 30.36 1028 2 3 0.00 0.00
9:36 am 09:36 Windy with Snow Likely 28 -2 25 -4 86 86 N 21 33 30.36 1028 3 5 0.00 0.00
9:42 am 09:42 Windy with Snow Likely 27 -3 25 -4 93 93 N 23 37 30.36 1028 3 4 0.00 0.00
9:53 am 09:53 Windy with Snow Likely 27 -2.8 24 -4.4 89 89 N 22 35 30.31 1026 2 3 0.04 1.02
10:00 am 10:00 Cloudy with Light Snow 27 -3 25 -4 93 93 N 18 30 30.36 1028 2 3 0.00 0.00
10:16 am 10:16 Windy with Snow Likely 27 -3 23 -5 86 86 N 24 39 30.39 1029 4 6 0.00 0.00
10:29 am 10:29 Windy with Snow Likely 27 -3 23 -5 86 86 N 26 43 30.39 1029 2 3 0.00 0.00
10:34 am 10:34 Windy with Snow Likely 27 -3 23 -5 86 86 N 23 37 30.39 1029 1 1 0.00 0.00
10:53 am 10:53 Mostly Cloudy with Heavy Snow 25 -3.9 22 -5.6 88 88 N 24 39 30.33 1027 0 0 0.02 0.51
11:49 am 11:49 Windy with Snow Likely 25 -4 21 -6 86 86 N 24 39 30.39 1029 1 2 0.03 0.76
11:53 am 11:53 Windy with Snow Likely 25 -3.9 22 -5.6 88 88 N 22 35 30.33 1027 2 2 0.03 0.76
11:57 am 11:57 Windy with Snow Likely 25 -3.9 22 -5.6 88 88 N 20 31 30.39 1029 2 3 0.00 0.03
12:03 pm 12:03 Windy with Snow Likely 25 -4 21 -6 86 86 N 20 31 30.42 1030 3 5 0.00 0.00
12:24 pm 12:24 Windy with Snow Likely 25 -4 21 -6 86 86 N 26 43 30.39 1029 2 3 0.00 0.00
12:40 pm 12:40 Windy with Snow Likely 25 -4 21 -6 86 86 N 22 35 30.39 1029 4 6 0.00 0.00
12:53 pm 12:53 Cloudy with Light Snow 26 -3.3 22 -5.6 84 84 N 18 30 30.34 1027 5 8 0.00 0.03
1:14 pm 13:14 Windy with Snow Likely 27 -3 21 -6 80 80 N 22 35 30.39 1029 5 8 0.00 0.00
1:41 pm 13:41 Windy with Snow Likely 27 -3 21 -6 80 80 N 21 33 30.42 1030 6 10 0.00 0.00
1:49 pm 13:49 Cloudy 27 -3 21 -6 80 80 N 18 30 30.42 1030 9 14 0.00 0.00
1:53 pm 13:53 Cloudy 26 -3.3 22 -5.6 84 84 N 22 35 30.36 1028 10 16 0.01 0.25
2:22 pm 14:22 Cloudy 27 -3 21 -6 80 80 N 18 30 30.42 1030 8 13 0.00 0.00
2:53 pm 14:53 Cloudy 26 -3.3 21 -6.1 81 81 N 22 35 30.35 1028 10 16 0.00 0.00
3:04 pm 15:04 Cloudy 27 -3 21 -6 80 80 N 20 31 30.39 1029 10 16 0.00 0.00
3:53 pm 15:53 Cloudy 26 -3.3 21 -6.1 81 81 N 21 33 30.38 1029 10 16 0.00 0.00
4:01 pm 16:01 Cloudy 26 -3.3 21 -6.1 81 81 N 17 28 30.45 1031 10 16 0.00 0.00
4:53 pm 16:53 Cloudy 26 -3.3 20 -6.7 78 78 N 22 35 30.39 1029 10 16 0.00 0.00
5:17 pm 17:17 Cloudy 26 -3.3 20 -6.7 78 78 N 22 35 30.45 1031 10 16 0.00 0.00
5:35 pm 17:35 Cloudy 25 -4 19 -7 80 80 N 21 33 30.45 1031 10 16 0.00 0.00
5:53 pm 17:53 Cloudy 25 -3.9 20 -6.7 81 81 N 23 37 30.41 1030 10 16 0.00 0.00
6:53 pm 18:53 Cloudy 25 -3.9 20 -6.7 81 81 N 16 26 30.45 1031 10 16 0.00 0.00
7:12 pm 19:12 Cloudy 25 -3.9 20 -6.7 81 81 N 18 30 30.50 1033 10 16 0.00 0.00
7:36 pm 19:36 Cloudy 25 -3.9 20 -6.7 81 81 N 21 33 30.50 1033 10 16 0.00 0.00
7:53 pm 19:53 Cloudy 25 -3.9 20 -6.7 81 81 N 21 33 30.48 1032 10 16 0.00 0.00
8:42 pm 20:42 Cloudy 25 -4 19 -7 80 80 N 22 35 30.50 1033 10 16 0.00 0.00
8:53 pm 20:53 Cloudy 24 -4.4 19 -7.2 81 81 N 20 31 30.48 1032 10 16 0.00 0.00
9:43 pm 21:43 Cloudy 23 -5 18 -7.8 81 81 N 21 33 30.56 1035 10 16 0.00 0.00
9:53 pm 21:53 Cloudy 23 -5 18 -7.8 81 81 N 16 26 30.50 1033 10 16 0.00 0.00
10:53 pm 22:53 Mostly Cloudy 22 -5.6 17 -8.3 82 82 N 23 37 30.51 1033 10 16 0.00 0.00
11:15 pm 23:15 Mostly Cloudy 22 -5.6 17 -8.3 82 82 N 20 31 30.59 1036 10 16 0.00 0.00
11:53 pm 23:53 Mostly Cloudy 22 -5.6 16 -8.9 78 78 N 22 35 30.54 1034 10 16 0.00 0.00

Powered by AerisWeather